, AK

(GMT )
Aniak

Weather History for PANI - October, 2013

Change the Weather History Date:

Thursday, October 3, 2013

  Actual Average Record
Temperature  
Mean Temperature 30 °F -  
Max Temperature 37 °F 41 °F 55 °F (2001)
Min Temperature 23 °F 29 °F 23 °F (1998)
Degree Days  
Heating Degree Days 35    
Moisture  
Dew Point 26 °F    
Average Humidity 81    
Maximum Humidity 93    
Minimum Humidity 68    
Precipitation  
Precipitation 0.00 in - - ()
Sea Level Pressure  
Sea Level Pressure 29.75 in    
Wind  
Wind Speed 3 mph (North)    
Max Wind Speed 13 mph    
Max Gust Speed 16 mph    
Visibility 10 miles    
Events      
Averages and records for this station are not official NWS values.
T = Trace of Precipitation, MM = Missing Value Source: NWS Daily Summary

Daily Weather History Graph

Daily Weather History Graph

Search for Another Location

Airport or City:

Trip Planner

Search our weather history database for the weather conditions in past years. The results will help you decide how hot, cold, wet, or windy it might be!

Date:

Astronomy

Oct. 03, 2013 Rise Set
Actual Time 8:51 AM AKDT 8:01 PM AKDT
Civil Twilight 8:07 AM AKDT 8:44 PM AKDT
Nautical Twilight 7:16 AM AKDT 9:35 PM AKDT
Astronomical Twilight 6:22 AM AKDT 10:29 PM AKDT
Moon 7:25 AM AKDT (10/3) 7:18 PM AKDT (10/3)
Length of Visible Light 12h 37m
Length of Day
11h 10m
Waning Crescent, 2% of the Moon is Illuminated
Oct 3
Waning Crescent
Oct 4
New
Oct 11
First Quarter
Oct 18
Full
Oct 26
Last Quarter

Hourly Weather History & Observations

Time (AKDT) Temp. Windchill Dew Point Humidity Pressure Visibility Wind Dir Wind Speed Gust Speed Precip Events Conditions
12:16 AM 35.6 °F - 26.6 °F 70% 29.78 in 10.0 mi Calm Calm - N/A   Clear
12:36 AM 33.8 °F 27.7 °F 24.8 °F 70% 29.78 in 10.0 mi NNE 6.9 mph - N/A   Clear
12:56 AM 32.0 °F - 24.8 °F 75% 29.78 in 10.0 mi Calm Calm - N/A   Clear
1:16 AM 30.2 °F - 24.8 °F 80% 29.78 in 10.0 mi Calm Calm - N/A   Clear
1:36 AM 30.2 °F - 24.8 °F 80% 29.78 in 10.0 mi Calm Calm - N/A   Clear
1:56 AM 28.4 °F - 23.0 °F 80% 29.78 in 10.0 mi Calm Calm - N/A   Clear
2:16 AM 28.4 °F - 24.8 °F 86% 29.78 in 10.0 mi Calm Calm - N/A   Clear
2:36 AM 26.6 °F - 21.2 °F 80% 29.78 in 10.0 mi Calm Calm - N/A   Clear
2:56 AM 28.4 °F - 24.8 °F 86% 29.78 in 10.0 mi Calm Calm - N/A   Clear
3:16 AM 28.4 °F - 24.8 °F 86% 29.79 in 10.0 mi Calm Calm - N/A   Clear
3:36 AM 26.6 °F - 24.8 °F 93% 29.79 in 10.0 mi Calm Calm - N/A   Clear
3:56 AM 26.6 °F 22.6 °F 23.0 °F 86% 29.78 in 10.0 mi North 3.5 mph - N/A   Clear
4:16 AM 26.6 °F - 23.0 °F 86% 29.78 in 10.0 mi Calm Calm - N/A   Clear
4:36 AM 26.6 °F - 23.0 °F 86% 29.78 in 10.0 mi Calm Calm - N/A   Clear
4:56 AM 24.8 °F - 21.2 °F 86% 29.78 in 10.0 mi Calm Calm - N/A   Clear
5:16 AM 26.6 °F - 21.2 °F 80% 29.78 in 10.0 mi Calm Calm - N/A   Clear
5:36 AM 24.8 °F - 21.2 °F 86% 29.78 in 10.0 mi Calm Calm - N/A   Clear
5:56 AM 26.6 °F 21.2 °F 23.0 °F 86% 29.78 in 10.0 mi North 4.6 mph - N/A   Clear
6:16 AM 28.4 °F 24.6 °F 23.0 °F 80% 29.78 in 10.0 mi North 3.5 mph - N/A   Clear
6:36 AM 26.6 °F - 21.2 °F 80% 29.77 in 10.0 mi Calm Calm - N/A   Clear
6:56 AM 26.6 °F - 21.2 °F 80% 29.77 in 10.0 mi Calm Calm - N/A   Clear
7:16 AM 24.8 °F 20.5 °F 19.4 °F 80% 29.77 in 10.0 mi SSE 3.5 mph - N/A   Clear
7:36 AM 24.8 °F - 19.4 °F 80% 29.77 in 10.0 mi Calm Calm - N/A   Clear
7:56 AM 24.8 °F 20.5 °F 21.2 °F 86% 29.77 in 10.0 mi SE 3.5 mph - N/A   Clear
8:16 AM 24.8 °F - 21.2 °F 86% 29.77 in 10.0 mi Calm Calm - N/A   Clear
8:36 AM 23.0 °F - 19.4 °F 86% 29.78 in 10.0 mi Calm Calm - N/A   Clear
8:56 AM 24.8 °F 20.5 °F 19.4 °F 80% 29.78 in 10.0 mi NW 3.5 mph - N/A   Clear
9:16 AM 24.8 °F - 21.2 °F 86% 29.78 in 10.0 mi Calm Calm - N/A   Clear
9:36 AM 24.8 °F 16.9 °F 21.2 °F 86% 29.79 in 10.0 mi NNE 6.9 mph - N/A   Scattered Clouds
9:56 AM 26.6 °F 22.6 °F 23.0 °F 86% 29.79 in 10.0 mi NNE 3.5 mph - N/A   Scattered Clouds
10:16 AM 26.6 °F - 21.2 °F 80% 29.79 in 10.0 mi Calm Calm - N/A   Partly Cloudy
10:36 AM 26.6 °F 22.6 °F 24.8 °F 93% 29.79 in 10.0 mi North 3.5 mph - N/A   Scattered Clouds
10:56 AM 28.4 °F 23.3 °F 24.8 °F 86% 29.78 in 10.0 mi North 4.6 mph - N/A   Mostly Cloudy
11:16 AM 28.4 °F 19.7 °F 24.8 °F 86% 29.78 in 10.0 mi NNE 9.2 mph - N/A   Overcast
11:36 AM 30.2 °F 23.4 °F 24.8 °F 80% 29.78 in 10.0 mi NNE 6.9 mph - N/A   Overcast
11:56 AM 30.2 °F 24.3 °F 24.8 °F 80% 29.77 in 10.0 mi NNE 5.8 mph - N/A   Overcast
12:16 PM 32.0 °F 28.7 °F 26.6 °F 80% 29.77 in 10.0 mi NNE 3.5 mph - N/A   Overcast
12:36 PM 33.8 °F 28.6 °F 26.6 °F 75% 29.76 in 10.0 mi North 5.8 mph - N/A   Overcast
12:56 PM 33.8 °F 29.6 °F 26.6 °F 75% 29.76 in 10.0 mi NNE 4.6 mph - N/A   Overcast
1:16 PM 33.8 °F 29.6 °F 26.6 °F 75% 29.76 in 10.0 mi NNE 4.6 mph - N/A   Overcast
1:36 PM 35.6 °F 29.9 °F 28.4 °F 75% 29.75 in 10.0 mi North 6.9 mph - N/A   Overcast
1:56 PM 35.6 °F 29.9 °F 28.4 °F 75% 29.75 in 10.0 mi NNW 6.9 mph - N/A   Overcast
2:16 PM 35.6 °F 29.2 °F 28.4 °F 75% 29.75 in 10.0 mi North 8.1 mph - N/A   Overcast
2:36 PM 37.4 °F 32.1 °F 28.4 °F 70% 29.74 in 10.0 mi North 6.9 mph - N/A   Overcast
2:56 PM 37.4 °F 30.8 °F 28.4 °F 70% 29.73 in 10.0 mi North 9.2 mph - N/A   Overcast
3:16 PM 37.4 °F 30.8 °F 30.2 °F 75% 29.73 in 10.0 mi NNW 9.2 mph - N/A   Overcast
3:36 PM 35.6 °F 28.0 °F 30.2 °F 81% 29.73 in 6.0 mi NNW 10.4 mph - N/A   Overcast
3:56 PM 37.4 °F 30.8 °F 30.2 °F 75% 29.72 in 5.0 mi NNW 9.2 mph - N/A   Overcast
4:16 PM 35.6 °F 29.2 °F 30.2 °F 81% 29.72 in 8.0 mi North 8.1 mph - N/A   Overcast
4:36 PM 35.6 °F 28.6 °F 30.2 °F 81% 29.71 in 8.0 mi NNW 9.2 mph - N/A   Overcast
4:56 PM 35.6 °F 28.6 °F 30.2 °F 81% 29.72 in 8.0 mi NNW 9.2 mph 16.1 mph N/A   Overcast
5:16 PM 35.6 °F 28.6 °F 30.2 °F 81% 29.71 in 8.0 mi NNW 9.2 mph - N/A   Overcast
5:36 PM 35.6 °F 28.6 °F 32.0 °F 87% 29.71 in 10.0 mi NNW 9.2 mph - N/A   Mostly Cloudy
5:56 PM 35.6 °F 28.6 °F 30.2 °F 81% 29.71 in 10.0 mi NNW 9.2 mph - N/A   Mostly Cloudy
6:16 PM 37.4 °F 29.8 °F 30.2 °F 75% 29.71 in 10.0 mi NNW 11.5 mph - N/A   Mostly Cloudy
6:36 PM 35.6 °F 29.2 °F 30.2 °F 81% 29.71 in 8.0 mi NNW 8.1 mph - N/A   Overcast
6:56 PM 35.6 °F 29.9 °F 32.0 °F 87% 29.71 in 10.0 mi North 6.9 mph - N/A   Overcast
7:16 PM 35.6 °F 29.2 °F 30.2 °F 81% 29.71 in 10.0 mi NNW 8.1 mph - N/A   Overcast
7:36 PM 35.6 °F 27.1 °F 30.2 °F 81% 29.71 in 10.0 mi NNW 12.7 mph - N/A   Overcast
8:36 PM 35.6 °F 28.6 °F 30.2 °F 81% 29.71 in 10.0 mi NNW 9.2 mph - N/A   Overcast
8:56 PM 33.8 °F 28.6 °F 30.2 °F 87% 29.72 in 10.0 mi NNW 5.8 mph - N/A   Overcast
9:16 PM 33.8 °F 28.6 °F 30.2 °F 87% 29.72 in 10.0 mi NNW 5.8 mph - N/A   Overcast
9:36 PM 33.8 °F 28.6 °F 30.2 °F 87% 29.71 in 10.0 mi NNW 5.8 mph - N/A   Overcast
9:56 PM 33.8 °F 27.7 °F 30.2 °F 87% 29.71 in 10.0 mi North 6.9 mph - N/A   Scattered Clouds
10:16 PM 33.8 °F 27.0 °F 30.2 °F 87% 29.72 in 10.0 mi NNW 8.1 mph - N/A   Scattered Clouds
10:36 PM 33.8 °F 28.6 °F 30.2 °F 87% 29.71 in 10.0 mi WNW 5.8 mph - N/A   Mostly Cloudy
10:56 PM 35.6 °F - 30.2 °F 81% 29.71 in 10.0 mi Calm Calm - N/A   Overcast
11:16 PM 35.6 °F - 30.2 °F 81% 29.73 in 10.0 mi Calm Calm - N/A   Overcast
11:36 PM 35.6 °F - 30.2 °F 81% 29.73 in 10.0 mi Calm Calm - N/A   Overcast
11:56 PM 35.6 °F 32.8 °F 30.2 °F 81% 29.73 in 10.0 mi West 3.5 mph - N/A   Overcast